Location: Borojevi?i
(45.0486°N, 16.2297°E)
Time: 16:36:32
(UTC+00:00)

Cosmos 1707 Rocket - Pass Details

Date: 08 August 2020
Orbit: 604 x 632 km, 82.5° (Epoch: 19 September)

Event Time Altitude Azimuth Distance (km) Brightness Sun altitude
Rises 19:26:03 0° 354° (N) 2,885 7.7 -12.1°
Reaches altitude 10° 19:28:19 10° 358° (N) 1,972 6.7 -12.4°
Maximum altitude 19:32:38 62° 79° (E) 688 3.6 -13.0°
Enters shadow 19:35:46 18° 157° (SSE) 1,506 5.0 -13.5°
